When you browse on this site, cookies collect data to enhance your experience and personalize the content and advertising you see.
Visit our Privacy Policy to learn more. By continuing to use the site, you agree to this use of cookies and data.
  • In Austria
  • List of Countries
  • For 7 days
  • Water Temperature
  • Satellite Maps
  • Weather Map
  • News
  • Weather Widgets
  • user-avatar
    Login

    Hourly Weather Rivne

    Today, 19 May, Sunday

    Time Temperature Precipitation Wind Pressure Humidity
    00:00 +18°C° 0 mm 2 mps 747 mmHg 81%
    01:00 +17°C° 0 mm 2 mps 747 mmHg 82%
    02:00 +17°C° 0 mm 2 mps 747 mmHg 83%
    03:00 +17°C° 0 mm 2 mps 747 mmHg 83%
    04:00 +17°C° 0 mm 2 mps 747 mmHg 83%
    05:00 +17°C° 0 mm 3 mps 747 mmHg 83%
    06:00 +19°C° 0 mm 3 mps 748 mmHg 78%
    07:00 +21°C° 0 mm 3 mps 748 mmHg 74%
    08:00 +24°C° 0 mm 3 mps 748 mmHg 69%
    09:00 +24°C° 0.4 mm 3 mps 748 mmHg 69%
    10:00 +24°C° 0.4 mm 3 mps 749 mmHg 68%
    11:00 +25°C° 0.4 mm 3 mps 749 mmHg 68%
    12:00 +25°C° 0 mm 3 mps 749 mmHg 66%
    13:00 +26°C° 0 mm 3 mps 749 mmHg 63%
    14:00 +27°C° 0 mm 3 mps 749 mmHg 60%
    15:00 +27°C° 0 mm 4 mps 749 mmHg 62%
    16:00 +26°C° 0 mm 4 mps 749 mmHg 63%
    17:00 +26°C° 0 mm 5 mps 748 mmHg 64%
    18:00 +23°C° 0 mm 4 mps 749 mmHg 70%
    19:00 +21°C° 0 mm 4 mps 749 mmHg 75%
    20:00 +19°C° 0 mm 3 mps 749 mmHg 81%
    21:00 +19°C° 0 mm 3 mps 749 mmHg 82%
    22:00 +18°C° 0 mm 3 mps 749 mmHg 83%
    23:00 +18°C° 0 mm 3 mps 750 mmHg 85%

    Tomorrow, 20 May, Monday

    Time Temperature Precipitation Wind Pressure Humidity
    00:00 +17°C° 0 mm 3 mps 750 mmHg 86%
    01:00 +17°C° 0 mm 3 mps 750 mmHg 88%
    02:00 +17°C° 0 mm 3 mps 750 mmHg 89%
    03:00 +17°C° 0 mm 3 mps 750 mmHg 92%
    04:00 +17°C° 0 mm 4 mps 750 mmHg 94%
    05:00 +17°C° 0 mm 4 mps 750 mmHg 96%
    06:00 +17°C° 0 mm 5 mps 750 mmHg 91%
    07:00 +19°C° 0 mm 5 mps 750 mmHg 86%
    08:00 +21°C° 0 mm 5 mps 750 mmHg 81%
    09:00 +23°C° 0 mm 5 mps 750 mmHg 75%
    10:00 +24°C° 0 mm 6 mps 750 mmHg 68%
    11:00 +27°C° 0 mm 6 mps 750 mmHg 61%
    12:00 +27°C° 0 mm 6 mps 750 mmHg 58%
    13:00 +28°C° 0 mm 6 mps 750 mmHg 55%
    14:00 +28°C° 0 mm 7 mps 750 mmHg 52%
    15:00 +28°C° 0 mm 7 mps 750 mmHg 52%
    16:00 +27°C° 0 mm 7 mps 749 mmHg 53%
    17:00 +26°C° 0 mm 7 mps 749 mmHg 53%
    18:00 +23°C° 0 mm 7 mps 749 mmHg 59%
    19:00 +21°C° 0 mm 7 mps 749 mmHg 66%
    20:00 +18°C° 0 mm 7 mps 749 mmHg 73%
    21:00 +17°C° 0 mm 6 mps 749 mmHg 75%
    22:00 +17°C° 0 mm 6 mps 749 mmHg 78%
    23:00 +16°C° 0 mm 6 mps 750 mmHg 81%

    Day after tomorrow, 21 May, Tuesday

    Time Temperature Precipitation Wind Pressure Humidity
    00:00 +16°C° 0 mm 6 mps 749 mmHg 80%
    01:00 +16°C° 0 mm 5 mps 749 mmHg 80%
    02:00 +16°C° 0 mm 5 mps 749 mmHg 80%
    03:00 +15°C° 0 mm 5 mps 749 mmHg 82%
    04:00 +15°C° 0 mm 5 mps 749 mmHg 84%
    05:00 +15°C° 0 mm 4 mps 749 mmHg 85%
    06:00 +18°C° 0 mm 4 mps 749 mmHg 80%
    07:00 +19°C° 0 mm 4 mps 749 mmHg 74%
    08:00 +21°C° 0 mm 4 mps 750 mmHg 68%
    09:00 +23°C° 0 mm 5 mps 750 mmHg 59%
    10:00 +26°C° 0 mm 5 mps 750 mmHg 50%
    11:00 +28°C° 0 mm 5 mps 750 mmHg 40%
    12:00 +28°C° 0 mm 6 mps 750 mmHg 39%
    13:00 +29°C° 0 mm 6 mps 749 mmHg 37%
    14:00 +29°C° 0 mm 6 mps 749 mmHg 36%
    15:00 +28°C° 0 mm 6 mps 749 mmHg 39%
    16:00 +27°C° 0 mm 6 mps 749 mmHg 43%
    17:00 +26°C° 0 mm 6 mps 749 mmHg 46%
    18:00 +23°C° 1.1 mm 6 mps 749 mmHg 56%
    19:00 +21°C° 1.1 mm 6 mps 749 mmHg 66%
    20:00 +19°C° 1.1 mm 6 mps 749 mmHg 75%
    21:00 +17°C° 0.8 mm 5 mps 749 mmHg 79%
    22:00 +18°C° 0.8 mm 4 mps 750 mmHg 82%
    23:00 +17°C° 0.8 mm 3 mps 750 mmHg 86%

    22 May, Wednesday

    Time Temperature Precipitation Wind Pressure Humidity
    00:00 +17°C° 0 mm 3 mps 750 mmHg 86%
    01:00 +16°C° 0 mm 3 mps 750 mmHg 86%
    02:00 +16°C° 0 mm 2 mps 749 mmHg 86%
    03:00 +16°C° 0 mm 2 mps 749 mmHg 83%
    04:00 +15°C° 0 mm 2 mps 749 mmHg 81%
    05:00 +14°C° 0 mm 3 mps 749 mmHg 78%
    06:00 +16°C° 0 mm 3 mps 750 mmHg 73%
    07:00 +18°C° 0 mm 3 mps 750 mmHg 67%
    08:00 +20°C° 0 mm 4 mps 750 mmHg 62%
    09:00 +21°C° 0 mm 4 mps 750 mmHg 56%
    10:00 +23°C° 0 mm 4 mps 750 mmHg 50%
    11:00 +25°C° 0 mm 4 mps 750 mmHg 43%
    12:00 +26°C° 0 mm 4 mps 750 mmHg 41%
    13:00 +26°C° 0 mm 5 mps 750 mmHg 39%
    14:00 +27°C° 0 mm 5 mps 750 mmHg 36%
    15:00 +27°C° 0 mm 5 mps 750 mmHg 36%
    16:00 +27°C° 0 mm 4 mps 749 mmHg 36%
    17:00 +26°C° 0 mm 4 mps 749 mmHg 36%
    18:00 +25°C° 0 mm 3 mps 749 mmHg 40%
    19:00 +23°C° 0 mm 2 mps 750 mmHg 45%
    20:00 +21°C° 0 mm 1 mps 750 mmHg 49%
    21:00 +20°C° 0 mm 2 mps 750 mmHg 54%
    22:00 +19°C° 0 mm 2 mps 750 mmHg 60%
    23:00 +18°C° 0 mm 3 mps 750 mmHg 65%

    23 May, Thursday

    Time Temperature Precipitation Wind Pressure Humidity
    00:00 +18°C° 0 mm 3 mps 750 mmHg 68%
    01:00 +17°C° 0 mm 3 mps 750 mmHg 70%
    02:00 +16°C° 0 mm 3 mps 750 mmHg 73%
    03:00 +16°C° 0 mm 3 mps 750 mmHg 75%
    04:00 +16°C° 0 mm 3 mps 750 mmHg 76%
    05:00 +14°C° 0 mm 3 mps 750 mmHg 78%
    06:00 +17°C° 0 mm 3 mps 750 mmHg 71%
    07:00 +19°C° 0 mm 3 mps 750 mmHg 65%
    08:00 +21°C° 0 mm 3 mps 750 mmHg 59%
    09:00 +22°C° 0 mm 3 mps 750 mmHg 53%
    10:00 +25°C° 0 mm 3 mps 750 mmHg 48%
    11:00 +26°C° 0 mm 3 mps 750 mmHg 42%
    12:00 +27°C° 0 mm 3 mps 750 mmHg 40%
    13:00 +28°C° 0 mm 3 mps 749 mmHg 38%
    14:00 +28°C° 0 mm 3 mps 749 mmHg 36%
    15:00 +28°C° 0 mm 3 mps 749 mmHg 36%
    16:00 +28°C° 0 mm 3 mps 748 mmHg 36%
    17:00 +28°C° 0 mm 3 mps 748 mmHg 36%
    18:00 +26°C° 0 mm 3 mps 748 mmHg 41%
    19:00 +25°C° 0 mm 2 mps 748 mmHg 45%
    20:00 +23°C° 0 mm 2 mps 748 mmHg 50%
    21:00 +23°C° 0.1 mm 1 mps 748 mmHg 53%
    22:00 +22°C° 0.1 mm 1 mps 748 mmHg 57%
    23:00 +21°C° 0.1 mm 1 mps 748 mmHg 60%

    24 May, Friday

    Time Temperature Precipitation Wind Pressure Humidity
    00:00 +20°C° 0.1 mm 2 mps 748 mmHg 64%
    01:00 +19°C° 0.1 mm 2 mps 748 mmHg 69%
    02:00 +18°C° 0.1 mm 2 mps 748 mmHg 73%
    03:00 +18°C° 0 mm 2 mps 748 mmHg 75%
    04:00 +19°C° 0 mm 1 mps 748 mmHg 77%
    05:00 +18°C° 0 mm 1 mps 748 mmHg 79%
    06:00 +20°C° 0 mm 1 mps 748 mmHg 73%
    07:00 +21°C° 0 mm 1 mps 748 mmHg 67%
    08:00 +23°C° 0 mm 1 mps 749 mmHg 61%
    09:00 +24°C° 0 mm 1 mps 748 mmHg 57%
    10:00 +25°C° 0 mm 2 mps 748 mmHg 52%
    11:00 +26°C° 0 mm 2 mps 747 mmHg 48%
    12:00 +26°C° 0.5 mm 2 mps 747 mmHg 49%
    13:00 +26°C° 0.5 mm 3 mps 746 mmHg 51%
    14:00 +26°C° 0.5 mm 3 mps 746 mmHg 52%
    15:00 +24°C° 1.8 mm 3 mps 746 mmHg 58%
    16:00 +22°C° 1.8 mm 3 mps 745 mmHg 63%
    17:00 +21°C° 1.8 mm 4 mps 745 mmHg 69%
    18:00 +20°C° 0.3 mm 3 mps 745 mmHg 72%
    19:00 +19°C° 0.3 mm 3 mps 744 mmHg 75%
    20:00 +18°C° 0.3 mm 2 mps 744 mmHg 79%
    21:00 +18°C° 0.1 mm 2 mps 744 mmHg 80%
    22:00 +18°C° 0.1 mm 2 mps 743 mmHg 82%
    23:00 +17°C° 0.1 mm 3 mps 743 mmHg 83%
    Show more